KCVOKONP

Guest
Details From KCVO - Corvallis Muni
To KONP - Newport Muni
Flight Number -
Tags Routegen Generated
Created
Modified
Stats Distance 42 nm / 78 km
Max Altitude 100 ft / 30 m
Waypoints 5
Social Downloads 1
Likes 0
Share VATSIM

Download

Looking for another format? Having issues loading an existing format? Contact us
Advertisement - Login to hide

Notes

Departing runway 0 KCVO. Arriving runway 17 KONP.

Route

KCVO +44.56_-123.28 +44.53_-123.67 +44.50_-124.05 KONP

ID Type Via Altitude Latitude Longitude Leg Dist Tot Dist Heading (true) Name
O KCVO APT - 0 ft / 0 m 44.48739˚ -123.29382˚ - 0 nm - -
+44.56_-123.28 LATLON - 100 ft / 30 m 44.55923˚ -123.28156˚ 4 nm 4 nm 7° / 7° -
+44.53_-123.67 LATLON - 100 ft / 30 m 44.52950˚ -123.66762˚ 16 nm 20 nm 264° / 264° -
+44.50_-124.05 LATLON - 100 ft / 30 m 44.49976˚ -124.05369˚ 16 nm 37 nm 264° / 264° -
O KONP APT - 0 ft / 0 m 44.57205˚ -124.05841˚ 4 nm 41 nm 357° / 357° -

Altitude Profile

Advertisement - Login to hide

KCVO

Details ICAO KCVO
Name CORVALLIS MUNI
Region United States
Timezone America/Los_Angeles (UTC-7.0)
Stats Elevation 246 ft / 75 m (AMSL)
Location 44.497677° -123.288546°
Runways 2
Magnetic Variation 15.097° E

METAR

KCVO 252356Z AUTO 29012KT 10SM OVC038 19/09 A3004 RMK AO2 SLP172 T01940094 10200 20139 58004

Decode

TAF

Not found

Departure Runways

ID Width Length Bearing (true) Bearing (mag) Surface Threshold Offset Overrun Length
09 75 ft / 23 m 3,540 ft / 1,079 m 112.18° 97.08° Asphalt 0 ft / 0 m 364 ft / 111 m
17 151 ft / 46 m 5,904 ft / 1,799 m 187.16° 172.06° Asphalt 0 ft / 0 m 0 ft / 0 m
27 75 ft / 23 m 3,540 ft / 1,079 m 292.19° 277.09° Asphalt 0 ft / 0 m 0 ft / 0 m
35 151 ft / 46 m 5,904 ft / 1,799 m 7.16° 352.06° Asphalt 0 ft / 0 m 197 ft / 60 m

KONP

Details ICAO KONP
Name Newport Muni
Region United States
Timezone America/Los_Angeles (UTC-7.0)
Stats Elevation 160 ft / 49 m (AMSL)
Location 44.580776° -124.057500°
Runways 2
Magnetic Variation 15.231° E

METAR

KONP 260035Z AUTO 34010G16KT 10SM BKN028 13/08 A3016 RMK AO2

Decode

TAF

KONP 252348Z 2600/2624 34011G19KT P6SM BKN028 FM260700 30007KT P6SM -DZ OVC011 TEMPO 2607/2611 2SM -DZ BR SCT003 OVC009 FM262100 30011G20KT P6SM SCT015 BKN300

Decode

Destination Runways

ID Width Length Bearing (true) Bearing (mag) Surface Threshold Offset Overrun Length
02 75 ft / 23 m 3,041 ft / 927 m 37.34° 22.11° Asphalt 0 ft / 0 m 0 ft / 0 m
16 151 ft / 46 m 5,438 ft / 1,657 m 177.36° 162.13° Asphalt 0 ft / 0 m 0 ft / 0 m
20 75 ft / 23 m 3,041 ft / 927 m 217.35° 202.12° Asphalt 0 ft / 0 m 400 ft / 122 m
34 151 ft / 46 m 5,438 ft / 1,657 m 357.36° 342.13° Asphalt 299 ft / 91 m 0 ft / 0 m

Approach Navaids

Runway Type Ident Frequency Range Bearing (true) Bearing (mag) Slope Elevation
16 Localiser IONP 111.50 MHz 18 nm / 33 km 177.38° 162.15° - 160 ft / 49 m (AMSL)
16 Glidescope IONP 111.50 MHz 10 nm / 19 km 177.36° 162.13° 3.00° 138 ft / 42 m (AMSL)